Theta_e
343 346 346 346 345 346 344 344 344 344 343 343 345 345 345 345 346 343 347 359 360 360 359 361 361 358 356 356 355 355 354 352 353 353 354 352 352 354 353 349 350 351 351
345 346 344 344 343 344 344 345 343 342 341 342 343 343 342 343 345 344 342 349 361 362 361 360 362 361 357 355 356 354 357 357 356 355 356 355 356 356 353 352 351 352 355
347 346 343 340 341 343 342 342 340 338 338 339 338 341 340 341 342 344 343 346 351 360 363 362 360 360 361 358 357 357 358 358 359 358 356 356 356 356 356 356 356 356 356
348 345 340 341 342 341 341 339 336 335 335 335 335 336 337 338 339 342 343 343 348 352 357 362 360 359 360 360 360 361 360 359 358 359 358 358 358 357 358 358 357 357 357
349 345 340 340 341 340 339 337 335 334 333 334 335 336 336 336 337 341 340 341 342 347 350 355 358 358 358 360 362 360 361 360 359 360 360 359 358 358 357 356 357 357 357
348 345 345 343 342 339 337 335 334 334 333 333 337 337 335 336 336 336 338 341 341 342 346 349 349 350 356 359 359 358 362 361 360 361 360 360 359 358 357 357 356 356 355
348 345 343 342 341 338 337 337 335 333 332 333 330 330 330 330 331 333 336 338 339 341 343 347 347 347 349 355 356 357 359 362 361 361 361 359 359 359 358 357 356 356 356
347 345 343 341 341 337 335 334 334 331 332 334 328 323 320 324 326 329 330 335 335 338 340 342 344 346 347 348 350 355 356 358 359 360 360 359 359 358 357 356 355 355 355
347 344 342 339 334 334 332 332 332 330 328 331 331 325 317 315 321 326 328 329 330 330 333 337 340 343 344 346 349 351 354 354 357 359 358 358 358 359 358 357 355 355 354
336 338 336 334 335 333 332 332 336 333 330 326 328 332 328 326 318 316 323 325 327 327 329 332 335 337 340 341 345 349 351 351 352 355 358 358 358 358 359 358 357 355 354
332 333 334 336 333 332 331 332 331 331 330 328 326 325 324 323 322 317 313 317 322 325 328 330 330 333 337 339 339 340 345 347 347 351 353 356 357 359 361 360 359 357 356
326 332 336 332 331 330 330 330 330 330 329 329 327 325 321 318 317 317 315 315 316 320 324 326 327 330 334 335 335 340 345 348 347 347 349 351 354 358 360 362 361 360 360
327 329 328 329 325 325 328 329 329 327 328 327 325 323 323 322 322 320 317 314 314 316 319 320 324 323 329 326 328 333 336 339 342 344 344 347 350 352 355 358 360 361 361
327 327 327 326 324 326 329 330 329 327 327 328 326 325 324 323 323 320 318 314 307 309 311 312 318 319 321 321 326 331 327 333 336 339 341 341 342 345 349 351 353 355 357
327 327 326 325 326 329 330 328 327 328 328 327 326 326 325 324 321 320 318 316 309 302 303 309 312 315 316 318 322 324 324 329 332 335 338 338 339 340 341 344 347 348 350
326 326 325 326 326 328 328 326 325 326 326 326 326 326 326 324 321 319 318 315 313 309 307 310 311 313 316 319 322 322 322 328 330 331 335 337 337 338 338 339 341 344 345
324 325 326 327 328 326 325 326 326 327 326 325 326 326 326 324 320 319 318 316 313 312 312 311 313 315 315 317 319 320 321 322 325 330 332 335 335 335 336 336 338 340 342
325 328 328 327 326 325 326 327 327 327 326 325 325 324 325 326 321 318 317 316 315 313 312 312 313 315 314 319 318 317 319 322 323 327 328 330 334 333 332 331 333 334 335
326 324 324 322 321 322 324 325 326 326 325 326 326 323 323 321 320 318 317 317 316 317 314 314 315 319 318 318 316 317 318 319 322 327 327 329 331 332 330 328 327 327 327
324 323 323 322 322 323 324 324 324 325 325 326 325 323 322 321 321 319 318 318 317 315 314 313 316 316 315 316 316 314 313 317 317 322 326 327 329 333 333 329 327 327 323
327 324 323 322 324 325 326 324 325 326 325 324 323 322 323 324 329 324 320 318 316 315 314 314 315 314 313 312 311 314 314 316 316 319 319 322 325 330 338 332 334 332 326
326 324 323 324 324 326 325 327 328 322 321 320 318 317 318 323 323 326 327 327 322 315 314 313 314 312 312 312 315 314 314 312 310 319 318 320 328 330 337 338 333 330 327
326 323 323 324 324 323 323 323 328 320 317 316 314 315 317 321 322 319 321 323 323 323 324 317 312 312 311 314 315 313 313 313 312 317 318 316 320 322 331 338 330 327 326
326 324 324 324 322 324 321 320 325 321 317 315 316 316 314 314 316 317 316 313 312 312 313 315 314 314 315 316 316 316 315 315 316 318 319 314 319 320 329 339 331 328 325
325 325 324 324 324 323 320 319 319 319 316 315 313 313 315 314 316 317 311 309 309 310 316 317 317 317 317 317 318 316 313 312 311 313 319 316 318 318 325 334 340 329 325
327 326 326 323 323 324 318 316 315 316 313 311 312 313 314 313 312 310 308 306 308 308 309 311 313 314 316 316 319 318 315 311 311 311 318 315 317 321 322 334 339 335 329
Wind_Speed
4 3 3 3 2 1 1 1 1 3 4 5 5 4 4 4 5 3 2 11 12 13 15 16 17 17 17 17 17 17 17 16 15 15 14 13 13 12 11 12 11 11 10
4 4 3 2 1 1 1 1 2 3 3 3 5 5 5 4 5 5 3 4 11 12 15 15 17 18 18 18 17 17 17 16 15 15 14 14 13 13 14 13 13 12 12
5 5 3 1 3 2 3 2 2 2 3 3 4 4 5 5 4 5 4 4 5 11 15 16 16 17 18 18 18 17 17 17 17 17 16 15 14 13 14 13 13 13 11
6 5 3 4 3 2 2 2 2 3 3 3 3 4 4 5 5 5 4 4 4 4 9 17 17 17 18 20 19 18 19 18 18 16 16 16 16 16 15 14 14 14 12
5 4 3 3 3 2 2 2 2 1 2 4 4 4 4 4 5 5 6 6 5 5 4 10 17 17 18 20 19 19 19 19 18 18 18 18 17 17 16 15 15 14 13
3 4 4 4 3 2 2 2 2 1 3 3 4 5 5 4 3 4 5 5 4 5 5 6 5 7 18 19 19 20 19 20 20 20 19 18 18 18 17 16 16 16 15
5 4 3 3 3 3 3 3 2 3 2 1 2 4 4 3 2 3 3 3 5 5 4 4 3 3 4 14 18 19 19 21 21 21 21 20 20 19 18 18 17 16 16
5 4 4 3 2 1 2 2 3 1 2 0 1 1 4 5 3 3 2 3 5 4 4 5 4 5 5 3 8 14 19 20 21 21 21 21 21 21 20 19 18 18 17
5 4 3 3 2 2 3 2 2 3 1 1 1 2 1 2 3 3 4 4 6 4 4 5 5 5 5 5 9 10 15 16 19 21 22 22 22 22 22 21 20 19 19
5 5 4 4 4 3 3 2 2 1 2 1 1 0 1 2 1 4 3 3 5 5 6 4 4 5 5 4 10 14 14 15 17 20 22 23 23 24 23 23 22 21 20
3 5 5 5 4 3 3 3 2 3 2 2 2 1 0 1 0 0 4 4 3 3 4 4 4 4 5 5 5 9 18 18 17 19 20 21 24 24 25 25 23 22 22
2 4 5 5 4 3 3 3 2 3 3 2 2 2 2 3 2 2 2 4 3 4 4 4 4 4 4 4 12 18 18 18 18 19 20 22 22 24 26 26 26 25 24
2 4 4 4 3 4 3 2 3 3 3 3 5 4 3 3 3 3 3 3 2 3 3 3 2 3 3 4 6 18 20 18 19 19 19 15 18 20 23 25 26 25 26
4 5 5 4 5 3 2 2 2 3 3 4 5 4 3 3 3 3 3 3 2 3 2 5 2 2 3 4 11 21 11 19 19 19 19 20 17 15 18 21 22 24 25
4 6 6 6 5 4 3 2 2 3 4 3 5 5 4 3 3 4 3 3 4 2 3 4 3 4 4 4 8 10 10 18 21 22 20 20 21 21 21 18 20 23 23
6 6 6 6 5 5 4 3 3 4 4 4 3 5 5 3 4 4 4 3 3 4 4 4 4 4 5 7 10 10 12 22 21 21 21 21 22 23 22 22 22 23 23
7 6 7 6 6 6 6 5 6 6 5 6 4 6 7 5 4 5 4 4 4 4 5 4 4 4 5 9 10 9 10 11 11 20 21 22 23 23 23 23 21 22 23
6 7 6 6 6 6 6 6 7 6 6 6 6 5 7 3 6 6 4 7 5 5 4 10 3 4 6 11 11 12 11 10 12 19 23 23 23 23 22 21 20 19 20
7 6 6 6 6 6 7 7 6 6 6 7 7 5 7 5 6 5 6 6 5 5 5 5 8 7 8 9 10 10 10 12 10 20 22 20 23 24 24 22 22 21 21
7 8 7 7 7 7 6 6 7 7 6 6 6 6 6 6 7 7 7 9 6 6 5 5 8 9 8 8 8 11 12 10 12 12 16 19 22 21 24 23 23 23 20
9 8 7 7 7 6 6 7 7 7 6 5 6 6 6 7 11 10 5 7 6 6 6 7 8 9 9 7 9 10 13 13 14 12 12 12 11 11 12 20 20 23 21
8 7 7 7 7 6 9 10 8 5 6 5 6 5 6 8 8 11 11 17 10 6 8 6 7 9 11 9 9 9 12 13 16 10 11 12 6 10 10 9 19 23 22
6 8 7 7 8 7 7 8 9 5 5 5 4 6 6 4 7 6 8 9 10 11 13 7 9 10 8 12 13 13 14 15 17 13 13 14 10 12 11 10 17 23 24
8 8 8 7 5 5 7 8 9 5 5 5 6 6 5 7 6 6 5 5 6 6 7 6 7 10 11 13 14 14 17 17 16 13 14 15 12 12 10 9 19 24 24
4 6 6 6 3 7 6 9 5 5 5 5 3 5 4 6 7 7 4 5 6 7 7 11 15 19 22 24 22 12 14 16 15 14 12 11 12 12 10 11 9 21 23
5 5 4 3 7 8 8 8 5 3 3 3 3 4 6 5 6 3 3 2 6 7 9 12 12 13 14 15 21 14 15 15 14 15 13 12 12 8 7 9 9 7 10
Wind_Direction
198 194 206 192 173 211 41 66 340 333 314 320 314 313 308 297 286 276 263 256 223 232 236 226 212 215 216 216 209 216 208 213 215 218 214 222 224 225 228 235 237 239 242
200 193 211 220 214 236 304 276 279 307 310 306 305 309 306 306 315 295 267 261 260 238 231 235 228 218 222 222 223 216 222 216 217 223 227 226 229 228 229 232 236 239 243
202 188 199 236 257 235 266 271 295 302 309 311 303 306 303 307 304 305 283 270 271 258 233 233 231 225 225 228 224 225 223 226 226 218 225 229 228 227 230 232 236 243 244
201 196 197 217 232 236 265 274 288 306 300 296 296 296 298 300 295 292 291 269 259 257 246 234 234 230 225 229 232 226 224 228 231 229 223 227 229 231 234 236 237 242 238
217 203 178 237 246 242 245 246 277 223 295 308 304 293 283 276 283 302 298 297 282 265 244 248 235 234 237 236 237 238 233 227 229 231 230 228 229 230 233 233 235 237 237
147 172 184 219 209 208 261 246 266 295 259 281 300 298 285 284 294 283 280 294 290 275 253 240 249 238 237 239 243 240 237 236 233 228 231 234 230 230 231 233 232 232 234
172 181 196 186 162 183 229 238 247 246 292 319 330 316 314 336 287 294 317 319 323 311 277 263 284 275 268 251 242 243 243 241 237 234 227 229 232 230 228 229 231 232 232
172 171 180 191 198 228 285 252 205 226 258 251 198 91 353 334 321 9 354 14 20 359 1 346 316 289 272 263 252 252 241 241 242 243 241 235 230 229 229 228 227 230 232
181 189 194 190 201 179 217 226 201 186 197 313 295 153 35 268 327 328 349 358 5 351 344 339 330 321 303 287 279 269 253 241 243 241 239 237 237 229 229 229 227 227 230
186 180 194 198 191 187 199 209 186 189 135 163 3 279 272 184 265 325 326 332 345 342 337 330 326 316 301 285 286 283 275 263 250 246 245 240 233 236 230 228 228 227 230
198 207 190 175 182 201 208 203 193 190 171 158 188 198 110 39 34 299 296 314 330 320 309 320 317 317 319 302 283 278 281 271 260 257 253 247 239 233 236 233 229 229 227
280 206 171 173 189 199 202 215 223 203 198 197 183 183 176 169 203 177 246 302 294 296 304 312 332 340 342 353 337 327 319 299 272 265 256 249 244 238 233 236 234 229 229
188 168 163 177 190 211 218 240 234 232 205 188 189 199 184 203 176 184 170 237 274 299 310 299 305 345 339 334 323 324 319 310 302 268 257 244 241 239 237 237 236 233 233
180 177 189 189 226 221 255 274 237 232 223 220 220 215 200 210 194 180 180 159 291 289 301 259 295 305 314 310 319 323 314 311 298 288 263 249 238 233 230 230 234 237 232
192 192 193 206 226 245 234 260 261 254 250 230 231 230 219 215 205 196 184 171 165 248 278 293 290 272 291 289 299 313 304 301 306 294 272 251 247 241 238 231 229 230 227
196 181 198 215 224 238 249 238 253 255 247 258 233 228 231 220 207 211 199 195 192 183 253 222 254 258 283 297 298 305 300 302 296 294 284 266 252 245 240 239 234 231 224
188 194 205 217 230 237 247 243 248 256 246 253 244 231 235 218 208 208 209 207 224 186 247 275 245 287 294 291 296 296 292 289 288 290 288 273 254 248 245 237 234 229 229
191 204 199 213 227 238 250 243 252 256 245 256 250 235 251 230 222 218 206 224 224 217 209 273 268 282 259 294 289 288 291 287 289 289 286 282 259 246 241 236 230 229 227
198 202 203 210 230 242 246 246 239 252 251 249 258 244 253 238 241 226 228 233 232 238 221 245 278 289 285 282 287 282 285 287 281 283 283 281 265 249 240 234 230 230 225
190 205 210 218 228 242 244 250 249 247 247 249 260 253 252 232 233 238 241 242 243 243 243 240 272 280 276 282 282 291 296 288 292 285 278 271 272 264 239 233 228 223 220
202 200 212 227 240 237 241 236 242 239 231 250 265 266 261 261 255 239 229 251 231 244 253 252 263 278 275 284 287 292 288 292 292 286 280 273 267 260 244 231 236 233 219
202 198 216 222 234 241 238 239 222 211 230 238 261 292 278 287 278 276 260 248 244 234 246 247 264 263 277 281 286 288 294 295 294 277 265 269 269 274 246 224 219 225 217
186 210 221 219 234 243 248 250 229 212 237 239 248 269 283 274 287 283 283 280 274 269 244 252 253 258 271 280 289 289 288 283 283 282 273 271 267 268 265 230 216 210 211
197 209 222 226 234 265 256 262 258 245 233 240 240 249 257 284 284 282 275 287 284 287 278 265 246 267 274 280 278 280 285 281 276 269 254 259 257 257 262 245 215 208 208
168 216 207 187 196 261 260 263 262 244 237 250 262 266 270 291 295 295 277 301 307 294 282 298 294 281 276 275 275 288 293 294 285 280 249 237 246 250 251 255 227 207 205
193 209 205 189 236 255 253 244 212 209 251 251 285 281 288 273 311 306 285 311 300 289 309 306 298 289 289 286 292 281 294 292 284 281 247 229 227 212 231 221 220 199 205